CW1490 Weather Reports


Display with metric or nautical units.
time (UTC)temp
F
wind
direction
speed
MPH
gust
MPH
rain 1hr
in
rain 24hr
in
rain mn
in
humidity
%
barometer
mb
20161001134306 50 54 1.0 6.0 0.00 0.23 0.19 96 1027.3
20161001132805 50 26 2.0 6.0 0.00 0.23 0.19 96 1027.3
20161001131304 49 44 3.0 6.0 0.01 0.23 0.19 96 1027.3
20161001125756 49 64 3.0 5.0 0.01 0.23 0.19 97 1027.3
20161001124300 49 48 3.0 6.0 0.01 0.23 0.19 97 1027.4
20161001122752 48 36 2.0 4.0 0.01 0.23 0.19 97 1027.4
20161001121253 48 34 3.0 5.0 0.00 0.22 0.18 97 1027.4
20161001115747 47 34 4.0 6.0 0.00 0.22 0.18 97 1027.7
20161001114243 47 45 2.0 4.0 0.00 0.22 0.18 97 1027.8
20161001112746 47 41 2.0 4.0 0.00 0.22 0.18 96 1027.7
20161001111241 47 51 2.0 5.0 0.01 0.22 0.18 96 1027.8
20161001105750 47 57 1.0 4.0 0.01 0.22 0.18 96 1027.8
20161001104241 47 37 1.0 4.0 0.01 0.22 0.18 96 1027.7
20161001102737 47 41 1.0 4.0 0.01 0.22 0.18 96 1027.7
20161001101238 47 46 0.0 3.0 0.00 0.21 0.17 96 1027.8
20161001095736 47 51 3.0 5.0 0.00 0.21 0.17 96 1027.7
20161001094244 47 47 2.0 5.0 0.00 0.21 0.17 96 1027.7
20161001092744 47 34 2.0 4.0 0.01 0.21 0.17 96 1027.6
20161001091235 46 355 2.0 7.0 0.01 0.21 0.17 96 1027.5
20161001085735 46 63 6.0 9.0 0.01 0.21 0.17 96 1027.6
20161001084336 46 47 3.0 10.0 0.02 0.21 0.17 96 1027.8
20161001082731 46 37 4.0 9.0 0.01 0.20 0.16 96 1027.7
20161001081229 46 49 4.0 8.0 0.02 0.20 0.16 96 1027.7
20161001075729 47 41 3.0 7.0 0.02 0.20 0.16 96 1027.7
20161001074226 47 28 4.0 9.0 0.03 0.19 0.15 96 1027.9
20161001072730 47 51 3.0 9.0 0.06 0.19 0.15 96 1028.1
20161001071225 47 51 4.0 9.0 0.05 0.18 0.14 96 1028.2
20161001065721 47 53 4.0 6.0 0.07 0.18 0.14 96 1028.2
20161001064221 47 36 2.0 5.0 0.06 0.16 0.12 96 1028.4
20161001062718 47 42 2.0 5.0 0.05 0.13 0.09 95 1028.5
20161001061217 47 74 2.0 6.0 0.06 0.12 0.08 95 1028.7
20161001055723 47 48 3.0 6.0 0.06 0.11 0.07 95 1028.7
20161001054221 47 28 2.0 4.0 0.05 0.10 0.06 95 1028.8
20161001052712 47 10 0.0 5.0 0.02 0.07 0.03 94 1028.9
20161001051209 47 35 2.0 5.0 0.01 0.06 0.02 93 1028.9
20161001045715 47 28 3.0 9.0 0.01 0.05 0.01 93 1028.9
20161001044208 47 359 3.0 10.0 0.02 0.05 0.01 94 1028.9
20161001042705 47 43 4.0 9.0 0.03 0.05 0.01 94 1028.9
20161001041204 47 13 2.0 8.0 0.04 0.05 0.01 94 1029.0
20161001035703 47 6 2.0 6.0 0.03 0.04 0.04 94 1029.1
20161001034158 47 28 2.0 6.0 0.03 0.03 0.03 92 1029.2
20161001032656 47 16 0.0 3.0 0.02 0.02 0.02 91 1029.3
20161001031218 48 58 0.0 3.0 0.01 0.01 0.01 90 1029.5
20161001025654 49 62 0.0 0.0 0.01 0.01 0.01 87 1029.6
20161001024154 50 38 0.0 4.0 0.00 0.00 0.00 81 1029.6
20161001022655 52 117 0.0 4.0 0.00 0.00 0.00 72 1029.5
20161001021154 53 41 1.0 5.0 0.00 0.00 0.00 69 1029.6
20161001015655 53 34 0.0 1.0 0.00 0.00 0.00 74 1029.4
20161001014151 54 34 1.0 5.0 0.00 0.00 0.00 64 1029.2
20161001012751 54 22 1.0 5.0 0.00 0.00 0.00 71 1029.2
20161001011152 55 49 1.0 6.0 0.00 0.00 0.00 64 1029.3
20161001005654 55 51 1.0 6.0 0.00 0.00 0.00 76 1029.2
20161001004154 54 65 1.0 4.0 0.00 0.00 0.00 81 1029.1
20161001002648 54 59 0.0 3.0 0.00 0.00 0.00 83 1029.1
20161001001207 55 59 0.0 0.0 0.00 0.00 0.00 80 1029.2
20160930235649 55 59 0.0 1.0 0.00 0.00 0.00 80 1029.1
20160930234151 55 59 0.0 4.0 0.00 0.00 0.00 75 1029.1
20160930232648 55 61 0.0 4.0 0.00 0.00 0.00 76 1029.0
20160930231155 56 86 5.0 9.0 0.00 0.00 0.00 71 1028.9
20160930225647 56 60 1.0 8.0 0.00 0.00 0.00 79 1028.9
20160930224152 56 47 2.0 4.0 0.00 0.00 0.00 80 1028.8
20160930222645 56 49 0.0 4.0 0.00 0.00 0.00 79 1028.6
20160930221144 57 64 2.0 5.0 0.00 0.00 0.00 75 1028.7
20160930215648 57 100 2.0 5.0 0.00 0.00 0.00 75 1028.8
20160930214144 58 33 2.0 7.0 0.00 0.00 0.00 75 1028.7
20160930212641 58 40 2.0 5.0 0.00 0.00 0.00 75 1028.8
20160930211145 58 57 1.0 6.0 0.00 0.00 0.00 76 1028.8
20160930205646 59 143 2.0 3.0 0.00 0.00 0.00 71 1028.6
20160930204140 59 47 0.0 4.0 0.00 0.00 0.00 74 1028.5
20160930202644 59 84 1.0 6.0 0.00 0.00 0.00 72 1028.5
20160930201139 60 350 3.0 9.0 0.00 0.00 0.00 68 1028.8
20160930195641 61 71 4.0 10.0 0.00 0.00 0.00 72 1028.9
20160930194137 61 68 4.0 11.0 0.00 0.00 0.00 71 1028.8
20160930192636 61 43 4.0 10.0 0.00 0.00 0.00 71 1029.0
20160930191340 61 91 3.0 10.0 0.00 0.00 0.00 70 1028.9
20160930185740 61 33 2.0 8.0 0.00 0.00 0.00 72 1029.1
20160930184131 60 74 1.0 11.0 0.00 0.00 0.00 70 1029.2
20160930182639 61 63 3.0 12.0 0.00 0.00 0.00 69 1029.3
20160930181136 62 48 6.0 12.0 0.00 0.00 0.00 69 1029.5
20160930175634 61 75 6.0 12.0 0.00 0.00 0.00 69 1029.7
20160930174123 61 61 4.0 13.0 0.00 0.00 0.00 72 1029.8
20160930172628 61 65 1.0 16.0 0.00 0.00 0.00 69 1030.1
20160930171119 61 58 6.0 12.0 0.00 0.00 0.00 72 1030.3
20160930165616 60 41 7.0 14.0 0.00 0.00 0.00 73 1030.4
20160930164117 59 55 7.0 13.0 0.00 0.00 0.00 71 1030.6
20160930162614 59 41 2.0 14.0 0.00 0.00 0.00 72 1030.7
20160930161110 59 60 5.0 10.0 0.00 0.00 0.00 74 1030.9
20160930155606 58 50 7.0 11.0 0.00 0.00 0.00 74 1031.1
20160930154103 58 13 4.0 14.0 0.00 0.00 0.00 75 1031.1
20160930152609 58 22 5.0 16.0 0.00 0.00 0.00 80 1031.2
20160930151136 56 26 5.0 9.0 0.00 0.00 0.00 83 1031.5
20160930145556 55 33 2.0 6.0 0.00 0.00 0.00 85 1031.7
20160930144054 54 53 2.0 6.0 0.00 0.00 0.00 87 1031.8
20160930142603 53 62 1.0 6.0 0.00 0.00 0.00 88 1031.9
20160930141157 53 53 2.0 5.0 0.00 0.00 0.00 91 1031.9
20160930135542 52 53 4.0 6.0 0.00 0.00 0.00 91 1032.0